Location: Unspecified
(0.0000°N, 0.0000°E)
Time: 00:33:08
(UTC+00:00)

Envisat - Pass Details

Date: 21 June 2017
Orbit: 764 x 766 km, 98.2° (Epoch: 19 August)

Event Time Altitude Azimuth Distance (km) Brightness Sun altitude
Exits shadow 20:12:26 24° 16° (NNE) 1,530 4.6 -29.6°
Drops below altitude 10° 20:14:33 10° 4° (N) 2,293 5.7 -30.1°
Sets 20:16:55 0° 359° (N) 3,216 6.6 -30.6°
